SCP
0 0 0 0 0 0 0 0 0 0 0 0 0 0 0 0 0 0 0 0 0 0 1 1 1 2 2 2 2 2 2 2 1 1 1 1 1 1 0 0 0 0 0 0
0 0 0 0 0 0 0 0 0 0 0 0 0 0 0 0 0 0 0 0 0 0 1 1 1 2 2 2 2 2 2 1 1 1 1 1 1 0 0 0 0 0 0 0
0 0 0 0 0 0 0 0 0 0 0 0 0 0 0 0 0 0 0 1 0 0 0 1 1 1 2 2 2 1 1 1 1 1 1 1 1 0 0 0 0 0 0 0
0 0 0 0 0 0 0 0 0 0 0 0 0 0 0 0 0 0 0 1 1 0 0 0 1 1 1 1 1 1 1 1 1 1 1 1 1 1 0 0 0 0 0 0
0 0 0 0 0 0 0 0 0 0 0 0 0 0 0 0 0 0 0 1 1 1 0 0 1 1 1 1 1 1 1 1 1 1 1 1 1 1 0 0 0 0 0 0
0 0 0 0 0 0 0 0 0 0 0 0 0 0 0 0 0 0 0 0 1 1 0 0 0 1 1 1 1 1 1 1 1 1 1 1 1 1 1 0 0 0 0 0
0 0 0 0 0 0 0 0 0 0 0 0 0 0 0 0 0 0 0 0 0 0 0 0 0 1 1 1 1 1 1 1 1 1 1 1 1 1 0 0 0 0 0 0
0 0 0 0 0 0 0 0 0 0 0 0 0 0 0 0 0 0 0 0 0 0 0 0 0 1 1 1 1 1 1 1 1 1 1 1 1 1 0 0 0 0 0 0
0 0 0 0 0 0 0 0 0 0 0 0 0 0 0 0 0 0 0 0 1 1 0 0 1 1 1 1 1 1 1 1 1 1 1 1 0 0 0 0 0 0 0 0
0 0 0 0 0 0 0 0 0 0 0 0 0 0 0 0 0 0 1 1 1 1 0 1 1 1 1 1 1 1 1 1 1 1 1 0 0 0 0 0 0 0 0 0
0 0 0 0 0 0 0 0 0 0 0 0 0 0 0 0 0 0 1 1 1 0 0 0 0 1 1 1 1 1 1 1 1 1 0 0 0 0 0 0 0 0 0 0
0 0 0 0 0 0 0 0 0 0 0 0 0 0 0 0 0 0 0 0 0 0 0 0 0 0 1 1 0 0 1 1 1 1 0 0 0 0 0 0 0 0 0 0
0 0 0 0 0 0 0 0 0 0 0 0 0 0 0 0 0 0 0 0 0 0 0 0 0 0 0 0 0 0 1 1 1 1 0 0 0 0 0 0 0 0 0 0
0 0 0 0 0 0 0 0 0 0 0 0 0 0 0 0 0 0 0 0 0 0 0 0 0 0 0 0 0 0 1 1 1 1 0 0 0 0 0 0 0 0 0 0
0 0 0 0 0 0 0 0 0 0 0 0 0 0 0 0 0 0 0 0 0 0 0 0 0 0 0 0 0 0 1 1 1 1 0 0 0 0 0 0 0 0 0 0
0 0 0 0 0 0 0 0 0 0 0 0 0 0 0 0 0 0 0 0 0 0 0 0 0 0 0 0 0 1 1 0 0 1 0 0 0 0 0 0 0 0 0 0
0 0 0 0 0 0 0 0 0 0 0 0 0 0 0 0 0 0 0 0 0 0 0 0 0 0 0 0 0 1 1 0 0 0 0 0 0 0 0 0 0 0 0 0
0 0 0 0 0 0 0 0 0 0 0 0 0 0 0 0 0 0 0 0 0 0 0 0 0 0 0 0 1 1 1 0 0 0 0 0 0 0 0 0 0 0 0 0
0 0 0 0 0 0 0 0 0 0 0 0 0 0 0 0 0 0 0 0 0 0 0 0 0 0 0 0 1 1 0 0 0 0 0 0 0 0 0 0 0 0 0 0
0 0 0 0 0 0 0 0 0 0 0 0 0 0 0 0 0 0 0 0 0 0 0 0 0 0 0 0 0 1 0 0 0 0 0 0 0 0 0 0 0 0 0 0
0 0 0 0 0 0 0 0 0 0 0 0 0 0 0 0 0 0 0 0 0 0 0 0 0 0 0 0 0 0 0 0 0 0 0 0 0 0 0 0 0 0 0 0
0 0 0 0 0 0 0 0 0 0 0 0 0 0 0 0 0 0 0 0 0 0 0 0 0 0 0 0 0 0 0 0 0 0 0 0 0 0 0 0 0 0 0 0
0 0 0 0 0 0 0 0 0 0 0 0 0 0 0 0 0 0 0 0 0 0 0 0 0 0 0 0 0 0 0 0 0 0 0 0 0 0 0 0 0 0 0 0
0 0 0 0 0 0 0 0 0 0 0 0 0 0 0 0 0 0 0 0 0 0 0 0 0 0 0 0 0 0 0 0 0 0 0 0 0 0 0 0 0 0 0 0
0 0 0 0 0 0 0 0 0 0 0 0 0 0 0 0 0 0 0 0 0 0 0 0 0 0 0 0 0 0 0 0 0 0 0 0 0 0 0 0 0 0 0 0
0 0 0 0 0 0 0 0 0 0 0 0 0 0 0 0 0 0 0 0 0 0 0 0 0 0 0 0 0 0 0 0 0 0 0 0 0 0 0 0 0 0 0 0
0 0 0 0 0 0 0 0 0 0 0 0 0 0 0 0 0 0 0 0 0 0 0 0 0 0 0 0 0 0 0 0 0 0 0 0 0 0 0 0 0 0 0 0
Wind_Speed
4 2 4 6 8 10 11 9 8 6 6 5 3 2 1 2 3 5 6 7 8 8 8 9 9 10 10 10 10 11 11 10 9 8 7 6 6 5 5 4 4 4 4 4
6 5 5 6 8 9 10 10 10 9 8 4 2 1 2 3 4 6 6 7 7 8 9 10 10 10 10 10 10 10 11 10 9 8 7 6 6 6 6 5 5 4 4 4
5 5 6 8 7 8 8 8 9 9 6 2 2 2 2 3 5 6 6 7 7 8 9 9 10 10 10 10 10 10 11 10 10 9 8 7 7 7 6 6 6 5 4 4
4 5 8 1 1 4 7 7 8 7 5 3 3 2 2 3 4 5 6 6 7 7 7 8 9 9 9 10 10 10 10 10 10 9 9 8 7 7 7 6 6 5 4 4
5 6 5 3 3 4 5 5 5 6 5 4 3 3 2 2 3 4 5 6 6 6 6 7 8 9 9 10 10 10 10 10 10 10 9 8 8 8 7 6 6 5 5 4
6 7 6 1 2 1 5 4 2 3 3 4 5 4 1 1 3 3 3 4 4 5 6 6 7 8 9 10 10 10 10 9 9 9 9 9 8 7 6 6 6 5 4 4
9 7 4 1 1 4 6 1 2 1 2 4 4 1 2 1 2 2 3 3 4 5 5 6 7 8 9 9 9 9 9 8 8 9 8 8 7 6 6 6 6 5 5 4
7 8 4 3 4 4 2 2 1 1 2 3 2 2 2 2 3 3 3 3 4 5 5 5 7 8 8 7 6 7 7 8 8 8 7 7 7 6 6 6 6 6 5 5
4 3 2 2 2 2 2 1 0 1 1 2 3 3 3 3 3 3 4 4 4 5 6 6 6 6 7 6 6 7 8 8 7 8 6 7 7 7 6 6 5 5 5 4
5 4 3 2 2 1 1 1 1 1 3 3 4 4 4 3 3 4 4 4 4 5 6 5 5 5 5 6 7 8 8 8 7 7 7 6 5 5 5 5 5 5 4 4
6 4 3 4 3 2 1 1 2 2 3 3 4 4 4 4 4 4 4 4 5 5 5 5 5 5 5 6 7 8 8 8 7 6 6 6 5 3 4 4 3 4 4 4
5 5 4 3 2 2 2 2 2 3 4 3 4 4 4 4 4 4 5 5 5 5 5 5 5 5 5 6 7 7 7 7 6 5 5 5 5 5 3 2 3 2 1 1
2 1 2 1 1 1 2 2 3 3 4 5 5 5 5 5 4 5 5 5 5 6 5 6 6 5 5 6 6 7 6 6 5 5 5 5 5 5 5 4 4 4 3 2
3 2 3 3 2 2 3 3 4 4 4 5 5 5 5 5 5 5 4 4 5 5 5 6 5 5 5 6 6 6 6 5 5 5 5 5 5 5 4 4 4 4 4 4
5 5 3 2 2 3 4 4 5 5 5 5 5 5 5 5 5 5 4 4 5 5 5 5 5 4 4 5 6 6 5 4 4 4 4 5 5 5 4 4 4 3 3 4
4 4 5 5 4 4 5 5 5 5 5 5 5 5 5 5 5 5 4 4 4 5 4 4 3 3 3 5 6 5 4 4 4 4 4 5 5 4 4 4 4 3 3 3
7 6 7 6 6 5 5 5 4 5 5 5 5 6 6 6 6 5 4 3 3 4 3 4 3 3 3 4 5 4 4 5 6 4 4 4 4 5 4 4 4 3 3 3
6 6 6 6 6 6 5 5 5 5 5 5 6 6 6 6 5 5 4 3 4 4 3 3 3 3 2 3 3 3 4 4 4 4 3 3 3 4 4 4 4 4 3 4
5 5 5 5 5 6 5 5 5 5 6 6 6 6 5 5 5 5 4 4 4 3 3 3 2 2 3 3 3 3 3 4 4 4 4 4 4 4 4 4 4 4 4 3
6 6 6 6 6 6 6 6 6 5 5 6 6 6 6 5 4 4 4 3 2 2 2 2 2 2 2 3 2 2 3 3 4 3 3 3 3 3 3 4 4 4 4 3
8 8 8 7 7 6 6 6 6 6 6 6 6 6 6 5 4 3 3 3 3 3 3 2 1 2 2 2 2 2 2 3 3 3 3 3 3 3 3 4 4 3 3 3
8 8 8 7 7 6 5 5 6 6 6 6 5 5 5 5 4 3 3 2 2 2 1 1 2 3 3 1 1 2 2 2 2 2 2 2 3 3 3 3 3 3 3 3
7 8 8 7 7 7 6 6 6 6 6 6 5 5 4 4 3 3 2 2 2 2 1 2 4 4 2 0 1 1 2 2 2 2 2 2 2 2 2 3 3 3 3 3
8 7 7 7 7 7 7 6 5 5 5 5 4 4 4 3 2 2 2 3 3 2 2 3 4 2 0 0 1 1 1 1 1 1 1 2 2 2 2 2 2 2 2 3
7 7 8 8 7 5 6 6 6 5 5 4 4 3 2 2 2 2 2 3 3 2 2 3 3 1 0 1 0 0 0 1 0 0 1 1 1 1 1 2 2 2 2 2
7 6 5 5 5 5 4 4 4 4 4 4 3 3 2 2 3 3 3 3 3 3 2 1 1 1 1 1 1 1 1 1 1 1 1 1 1 1 1 1 1 1 1 1
6 5 5 5 4 4 4 4 4 4 3 4 3 3 3 3 3 3 3 3 2 2 2 1 1 1 1 1 1 1 1 1 0 0 0 0 0 1 1 1 1 1 1 1
Wind_Direction
250 257 234 229 221 216 229 244 257 265 274 287 301 285 243 195 180 174 179 181 182 184 181 179 181 182 180 180 177 177 176 181 182 178 175 173 167 170 167 161 164 159 153 150
229 220 229 244 239 228 231 240 245 258 270 281 283 237 211 192 185 189 189 189 187 188 185 185 184 183 180 179 181 180 180 180 175 175 172 173 170 169 163 161 159 154 156 152
236 221 235 243 235 228 226 231 240 250 256 249 240 229 228 213 200 200 197 193 193 192 191 192 189 184 182 180 180 184 182 176 175 174 173 175 170 167 164 165 159 156 160 157
244 228 241 230 133 231 238 245 242 244 247 240 251 246 241 231 218 209 202 198 197 195 190 192 189 184 179 176 180 183 182 177 174 175 174 172 171 169 172 170 161 166 168 164
236 241 252 218 202 210 228 250 242 228 230 227 222 219 202 206 228 217 207 204 199 196 186 184 184 181 177 177 180 181 182 181 177 176 174 173 174 174 172 170 166 169 168 168
231 241 242 187 121 219 241 234 173 213 225 215 208 226 170 147 204 212 201 194 185 178 173 173 177 175 178 179 181 184 183 182 177 175 175 178 178 176 169 169 170 168 167 179
234 242 247 52 120 196 224 96 108 187 200 194 207 266 71 115 159 175 172 167 163 164 166 168 169 173 179 181 187 184 177 175 173 173 176 175 171 170 169 168 168 171 169 177
221 231 223 129 176 216 352 38 112 159 177 180 176 124 113 117 126 138 138 142 151 154 154 157 165 173 176 179 176 166 165 169 170 170 168 166 164 167 169 167 171 175 178 175
226 242 27 155 229 317 341 343 32 153 154 157 152 145 140 133 126 128 129 133 140 143 141 147 159 172 172 165 161 160 162 165 165 163 162 167 165 165 167 173 180 183 183 182
221 224 234 237 233 243 272 313 13 148 150 153 147 137 133 130 127 124 123 126 132 135 138 145 153 163 164 155 159 160 161 162 163 162 161 164 166 170 172 179 184 185 185 186
223 216 217 223 226 221 211 177 143 140 143 149 141 131 129 130 123 121 121 125 132 135 141 148 152 154 154 154 158 159 158 156 159 158 157 162 162 167 180 175 180 185 185 185
222 208 216 201 192 182 184 172 154 143 134 132 137 130 127 122 122 126 130 134 135 134 141 149 152 152 154 158 161 161 156 156 155 154 154 158 159 150 96 96 109 114 89 193
253 201 212 151 161 170 165 144 142 145 143 133 128 126 123 117 119 122 129 133 135 139 144 146 148 151 155 158 162 165 159 156 156 158 157 159 163 165 159 140 126 128 131 152
206 180 181 184 184 167 144 135 133 130 128 125 122 122 121 118 116 117 121 129 132 131 133 137 142 148 157 158 161 165 160 154 158 163 165 166 169 173 173 171 168 164 155 155
208 219 211 168 152 148 143 141 138 134 127 122 122 123 122 121 118 113 112 119 125 125 128 129 132 137 149 162 166 164 157 158 164 163 165 167 169 174 175 176 173 165 158 153
192 185 182 178 174 161 158 156 150 144 140 132 127 123 118 114 113 110 109 117 129 132 134 134 135 137 151 167 165 162 156 147 159 163 164 166 168 169 172 176 175 174 178 166
187 186 182 181 180 172 168 164 155 147 142 137 128 123 121 117 113 108 106 111 122 125 129 131 130 129 149 169 168 162 155 153 163 167 168 171 172 173 177 178 180 184 186 162
206 204 195 184 176 170 165 155 147 143 138 133 130 129 127 125 120 114 114 113 107 100 95 100 108 122 141 164 167 165 164 163 170 174 170 175 177 177 179 180 182 187 179 159
185 179 174 168 165 164 157 148 142 135 132 136 139 135 130 127 125 124 126 121 110 97 75 75 92 134 133 141 155 166 168 167 167 171 172 168 182 186 184 186 187 189 185 181
164 155 149 145 146 147 143 138 135 132 132 137 135 130 125 122 124 129 129 113 88 74 82 82 119 116 118 120 148 162 168 170 170 170 173 180 188 193 193 194 197 198 197 198
151 146 142 137 135 134 133 134 134 133 133 136 136 132 126 122 124 128 126 108 78 66 77 87 95 87 88 97 160 159 164 168 173 176 180 187 195 201 202 202 205 208 210 212
145 142 139 135 132 128 126 127 129 129 128 127 125 124 123 123 122 112 93 89 96 70 76 92 77 65 60 73 148 150 160 170 176 179 186 193 199 203 207 211 212 213 218 222
140 140 138 136 132 125 122 122 124 125 126 127 128 129 126 121 126 130 116 92 98 68 55 69 68 68 59 118 130 144 160 174 183 187 191 198 203 206 210 215 216 213 216 220
136 135 134 132 131 128 123 119 118 118 119 117 117 120 122 119 102 87 99 106 88 77 75 82 80 66 7 119 126 147 152 160 183 194 191 193 198 200 200 206 208 211 218 223
139 140 143 144 141 133 129 127 121 117 115 110 106 103 101 105 116 116 114 114 103 92 91 95 84 59 35 56 67 87 107 79 76 191 202 204 202 207 211 217 222 223 224 224
144 145 148 148 137 136 140 139 135 134 130 123 114 107 101 101 107 109 112 116 108 92 90 99 99 83 49 48 54 54 77 115 144 168 180 226 227 226 226 224 225 230 228 228
142 142 142 137 138 142 144 146 145 144 142 139 130 122 120 119 116 116 117 118 115 105 96 90 81 67 61 63 76 73 71 82 92 134 166 177 263 264 245 238 246 253 255 255